This is the latest recevied weather packets stored in our database for station/object KA2FNK. If no packets are shown the sender has not sent any weather packets the latest 1 day(s).
| Time | Temp. | Humidity | Pressure | Rain* | Wind** | Luminosity | Snow |
|---|---|---|---|---|---|---|---|
| 1777989216 | 8.89° C | 92% | 1011.5 hPa | 2.79 mm | 0.89 m/s, 95° | - | - |
| 1777988915 | 8.89° C | 91% | 1011.6 hPa | 2.54 mm | 1.34 m/s, 77° | - | - |
| 1777988614 | 8.89° C | 95% | 1011.8 hPa | 2.29 mm | 0 m/s | - | - |
| 1777988313 | 8.89° C | 95% | 1011.4 hPa | 2.29 mm | 0.89 m/s, 25° | - | - |
| 1777988012 | 8.89° C | 94% | 1012 hPa | 2.29 mm | 0.89 m/s, 338° | - | - |
| 1777987711 | 9.44° C | 91% | 1011.9 hPa | 2.29 mm | 0 m/s | - | - |
| 1777987410 | 9.44° C | 89% | 1011.2 hPa | 2.03 mm | 0 m/s | - | - |
| 1777987109 | 9.44° C | 88% | 1010.9 hPa | 1.78 mm | 0 m/s | - | - |
| 1777986808 | 9.44° C | 87% | 1011 hPa | 0.51 mm | 0 m/s | - | - |
| 1777986507 | 9.44° C | 85% | 1010.8 hPa | 0 mm | 1.34 m/s, 26° | - | - |
| 1777986206 | 9.44° C | 85% | 1012.2 hPa | 0.25 mm | 0 m/s | - | - |
| 1777985905 | 9.44° C | 85% | 1010.6 hPa | 0.25 mm | 0 m/s | - | - |
| 1777985604 | 9.44° C | 86% | 1009.9 hPa | 0.25 mm | 0.45 m/s, 68° | - | - |
| 1777985304 | 9.44° C | 86% | 1009.7 hPa | 0.25 mm | 0.45 m/s, 59° | - | - |
| 1777985002 | 9.44° C | 85% | 1009.7 hPa | 0.51 mm | 1.79 m/s, 99° | - | - |
| 1777984701 | 9.44° C | 85% | 1009.3 hPa | 0.51 mm | 0 m/s | - | - |
| 1777984400 | 9.44° C | 85% | 1009.4 hPa | 0.51 mm | 0 m/s | - | - |
| 1777984099 | 9.44° C | 83% | 1009.6 hPa | 0.51 mm | 0 m/s | - | - |
| 1777983798 | 9.44° C | 82% | 1009.4 hPa | 0.51 mm | 0 m/s | - | - |
| 1777983497 | 9.44° C | 82% | 1009.2 hPa | 0.51 mm | 4.02 m/s, 84° | - | - |
| 1777983196 | 9.44° C | 82% | 1009.2 hPa | 0.51 mm | 3.58 m/s, 52° | - | - |
| 1777982895 | 9.44° C | 80% | 1009.2 hPa | 0.51 mm | 1.34 m/s, 53° | - | - |
| 1777982594 | 9.44° C | 79% | 1009.1 hPa | 0.25 mm | 2.24 m/s, 59° | - | - |
| 1777982293 | 10° C | 79% | 1009.1 hPa | 0.25 mm | 1.34 m/s, 23° | - | - |
| 1777981992 | 10° C | 79% | 1009 hPa | 0.25 mm | 0 m/s | - | - |
* Rain latest hour (hover to see other rain measurements)
** Current wind speed in m/s (hover to see current wind gust speed)